Regional Weather Roundup
Issued by NWS Kansas City/Pleasant Hill, MO

Home | Current Version | Previous Version | Text Only | Print | Product List | Glossary On
Versions: 1 2 3 4 5 6 7 8 9 10 11 12 13 14 15 16 17 18 19 20 21 22 23 24 25 26 27
000
ASUS43 KEAX 170610
RWREAX

WEATHER ROUNDUP FOR EASTERN KANSAS AND NORTHWEST MISSOURI
NATIONAL WEATHER SERVICE KANSAS CITY/PLEASANT HILL MO
1200 AM CST WED JAN 17 2018

KSZ040-057-103>105-MOZ028-029-037-043-170700-
...KANSAS CITY METROPOLITAN AREA...

CITY           SKY/WX    TMP DP  RH WIND       PRES   REMARKS
K.C. INTL      CLOUDY    -1  -5  82 S6        30.68S WCI -13
6HR MIN TEMP:  -1; 6HR MAX TEMP:   5;

K.C. DOWNTOWN  CLOUDY     6  -1  73 SW3       30.72S
6HR MIN TEMP:   5; 6HR MAX TEMP:   9;

LEES SUMMIT    CLOUDY     2  -2  83 SW3       30.69F
6HR MIN TEMP:   2; 6HR MAX TEMP:   7;

OLATHE - IXD   CLOUDY     0  -2  91 S3        30.70S
6HR MIN TEMP:  -2; 6HR MAX TEMP:   6;

OLATHE - OJC   CLOUDY     0  -3  87 CALM      30.69S
6HR MIN TEMP:   0; 6HR MAX TEMP:   7;

LAWRENCE       CLOUDY    -5  -9  83 CALM      30.71F

$$

MOZ001>008-011>017-020>025-030>033-038>040-044>046-053-054-170700-
...NORTHERN AND CENTRAL MISSOURI...

CITY           SKY/WX    TMP DP  RH WIND       PRES   REMARKS
ST. JOSEPH     CLOUDY    -2  -4  91 CALM      30.71F
6HR MIN TEMP:  -3; 6HR MAX TEMP:   4;

MOSBY          CLOUDY     0  -6  78 CALM      30.72S
WARRENSBURG    CLOUDY    -2  -6  84 CALM      30.72F
WHITEMAN AFB   CLEAR     -2  -7  80 S3        30.66F
6HR MIN TEMP:  -2; 6HR MAX TEMP:   6;

CLINTON        NOT AVBL
SEDALIA        CLOUDY     3   0  87 W6        30.70F WCI  -8
6HR MIN TEMP:   3; 6HR MAX TEMP:   7;

WARSAW         NOT AVBL
CHILLICOTHE      N/A     -1  -6  79 CALM      30.71F
6HR MIN TEMP:  -1; 6HR MAX TEMP:   9;

KIRKSVILLE     CLOUDY    -2  -4  91 W6        30.65F WCI -14
6HR MIN TEMP:  -3; 6HR MAX TEMP:   8;


$$

MOZ041-047>049-056>058-063>065-088>090-097-170700-
...EASTERN AND SOUTHERN MISSOURI...

CITY           SKY/WX    TMP DP  RH WIND       PRES   REMARKS
ST. LOUIS INTL FLURRIES  10   3  73 W12       30.68F WCI  -5
6HR MIN TEMP:   7; 6HR MAX TEMP:  11; 6HR PCP: TRACE;

SPIRIT OF STL  CLOUDY     9   1  70 W7        30.70F WCI  -2
COLUMBIA       CLOUDY     2  -2  83 W7        30.68F WCI -11
JEFFERSON CITY CLOUDY     3  -2  79 CALM      30.74S
ROLLA          PTCLDY     3  -1  83 W7        30.67S WCI  -9
OSAGE BEACH    CLOUDY    -4 -11  72 SW3       30.71F
SPRINGFIELD    CLOUDY    -4  -7  87 CALM      30.66F
BRANSON        CLOUDY     1  -2  85 W3        30.68F
JOPLIN         CLOUDY    -3  -5  90 S3        30.73S
WEST PLAINS    CLEAR      2  -3  80 NW3       30.65F

$$

IAZ060-094-KSZ022-034>040-054-083-096-NEZ052-066-093-170700-
...KANSAS...SOUTHEAST NEBRASKA AND IOWA...

CITY           SKY/WX    TMP DP  RH WIND       PRES   REMARKS
TOPEKA         CLOUDY     0  -3  87 CALM      30.70F
6HR MIN TEMP:  -1; 6HR MAX TEMP:  10;

MANHATTAN      CLOUDY     1  -4  79 CALM      30.69F
EMPORIA        CLOUDY     3   0  87 SW3       30.69F
CHANUTE        CLOUDY     4  -1  80 CALM      30.72F
WICHITA        CLOUDY     4   1  88 SW5       30.68F WCI  -5
OMAHA          CLOUDY     1  -2  87 SE8       30.64F WCI -13
LINCOLN        CLOUDY     3  -2  79 CALM      30.63F
FALLS CITY     CLOUDY    -3  -7  82 CALM      30.67F
LAMONI         CLOUDY     0  -5  79 SW6       30.63F WCI -12
DES MOINES     CLOUDY    -1  -7  75 SW6       30.63F WCI -13

$$





USA.gov is the U.S. government's official web portal to all federal, state and local government web resources and services.